Regional Weather Roundup
Issued by NWS

Home | Current Version | Previous Version | Graphics & Text | Print | Product List | Glossary Off
Versions: 1 2 3 4 5 6 7 8 9 10 11 12 13 14 15 16 17 18 19 20 21 22 23 24 25 26 27 28 29 30 31 32 33 34 35 36 37 38 39 40 41 42 43 44 45 46 47 48 49 50

000
ASUS43 KMKX 042321
RWRWI

WISCONSIN REGIONAL WEATHER ROUNDUP
NATIONAL WEATHER SERVICE MILWAUKEE/SULLIVAN WI
600 PM CDT WED MAY 04 2016

NOTE: "FAIR" INDICATES FEW OR NO CLOUDS BELOW 12,000 FEET WITH NO
SIGNIFICANT WEATHER AND/OR OBSTRUCTIONS TO VISIBILITY.

WIZ001-002-006>008-014>016-023>028-050000-
NORTHWEST WISCONSIN

CITY           SKY/WX    TMP DP  RH WIND       PRES   REMARKS
SUPERIOR ARPT  SUNNY     50  29  43 E9        29.98S
ASHLAND        SUNNY     55  33  43 N9        29.99R
HAYWARD        SUNNY     59  24  26 N12       29.95R
SIREN          SUNNY     64  18  17 N12G18    29.94R
CUMBERLAND     SUNNY     59  16  18 N10G21    29.94R
RICE LAKE      SUNNY     62  15  16 N12G17    29.94S
CHETEK         SUNNY     61  23  23 NE6       29.93R
LADYSMITH      SUNNY     57  24  27 N15G28    29.95R
EAU CLAIRE     SUNNY     63  17  17 N12G22    29.91R
MENOMONIE      SUNNY     64  19  17 N17       29.92R
NEW RICHMOND   SUNNY     64  17  16 N16G22    29.94R
OSCEOLA        SUNNY     65  21  18 NW9G18    29.96S
$$

WIZ003>005-009-010-017-018-050000-
NORTH CENTRAL WISCONSIN

CITY           SKY/WX    TMP DP  RH WIND       PRES   REMARKS
MANITOWISH WTR MOSUNNY   49  31  51 NE12G18   29.95R
ARBOR VITAE    MOSUNNY   51  33  50 N10       29.94S
WOODRUFF       MOSUNNY   51  33  50 N10       29.94S
RHINELANDER    SUNNY     48  30  49 N9G22     29.94R
EAGLE RIVER    MOSUNNY   46  30  52 N15       29.94R
LAND O LAKES   PTSUNNY   46  32  56 N13       29.95S
PHILLIPS       MOSUNNY   52  32  46 NE15G21   29.94R
TOMAHAWK       MOSUNNY   50  31  46 N10G18    29.94R
MEDFORD        SUNNY     54  32  44 N15G24    29.91R
MERRILL        SUNNY     52  32  46 N17G26    29.93R
$$

WIZ029-030-035-036-043>047-050000-
CENTRAL WISCONSIN

CITY           SKY/WX    TMP DP  RH WIND       PRES   REMARKS
WAUSAU         SUNNY     55  31  39 N13G24    29.88R
MOSINEE        MOSUNNY   52  30  43 N20G29    29.90R
MARSHFIELD     SUNNY     57  28  33 N16G28    29.88R
STEVENS POINT  SUNNY     52  31  44 N13G21    29.88S
WAUPACA        MOSUNNY   57  31  37 N17G26    29.87R
WAUTOMA        SUNNY     57  32  38 N18G25    29.85R
WISC RAPIDS    SUNNY     58  29  33 NE21G30   29.88R
CAMP DOUGLAS   MOSUNNY   61  27  27 N22G31    29.86R
$$

WIZ011>013-019>022-031-037>040-048>050-050000-
NORTHEAST WISCONSIN

CITY           SKY/WX    TMP DP  RH WIND       PRES   REMARKS
ANTIGO         SUNNY     48  33  55 N17G23    29.90R
SHAWANO        CLOUDY    54  35  47 N17       29.88R
OCONTO         CLOUDY    48  33  55 N12G22    29.88R
STURGEON BAY   SUNNY     45  32  61 N18       29.91R
GREEN BAY      CLOUDY    53  36  52 N20G32    29.87R
MANITOWOC      CLOUDY    49  34  56 N15G24    29.85R
APPLETON       PTSUNNY   54  30  40 N17G23    29.84R
CLINTONVILLE   CLOUDY    54  32  43 N13G21    29.87R
OSHKOSH        CLOUDY    53  34  48 N17       29.85R
$$

WIZ032>034-041-042-053>061-050000-
SOUTHWEST WISCONSIN

CITY           SKY/WX    TMP DP  RH WIND       PRES   REMARKS
LA CROSSE      SUNNY     65  24  21 N17       29.88R
SPARTA         SUNNY     63  22  21 N13       29.88R
VIROQUA        SUNNY     60  25  25 N18G28    29.87S
BOSCOBEL       SUNNY     64  26  23 N16G26    29.86S
PRAIRIE DU CHI SUNNY     63  25  23 N18G24    29.86S
PLATTEVILLE    MOSUNNY   62  30  30 NW18G26   29.85R
$$

WIZ056-057-062-063-064-067-068-050000-
SOUTH CENTRAL WISCONSIN

CITY           SKY/WX    TMP DP  RH WIND       PRES   REMARKS
REEDSBURG      SUNNY     60  25  26 N14G23    29.84R
BARABOO/DELLS  SUNNY     60  20  21 N13G20    29.84R
LONE ROCK      SUNNY     62  23  22 N20G32    29.85R
MINERAL POINT  SUNNY     63  21  20 N13       29.84R
MADISON        PTSUNNY   58  29  33 N16G26    29.82R
MIDDLETON      PTSUNNY   61  29  29 N14       29.83R
WATERTOWN      MOSUNNY   56  36  48 N13       29.82R
MONROE         MOSUNNY   59  30  33 N17       29.82R
JANESVILLE     PTSUNNY   57  32  38 NE12G17   29.81R
$$

WIZ051-052-058>065-066-070>072-050000-
SOUTHEAST WISCONSIN

CITY           SKY/WX    TMP DP  RH WIND       PRES   REMARKS
MILWAUKEE      PTSUNNY   43  35  73 N16G23    29.84R
WAUKESHA       CLOUDY    50  34  53 N15G24    29.83R
MILWAUKEE/TIMM CLOUDY    45  34  65 NE12G18   29.84R
RACINE         CLOUDY    44  35  70 N17G24    29.85R
BURLINGTON     CLOUDY    52  34  50 N10G20    29.82R
KENOSHA        CLOUDY    46  37  71 NE10G23   29.83R
FOND DU LAC    CLOUDY    53  38  56 N18       29.84R
SHEBOYGAN      CLOUDY    45  36  70 NE10      29.85R
WEST BEND      CLOUDY    48  36  61 NE10G17   29.84R
JUNEAU         PTSUNNY   54  35  48 N16G23    29.84R
$$

LSZ147-162-050000-
LAKE SUPERIOR

STATION/POSITION TIME  TEMP    WIND        PRES    WAVE
                       AIR SEA DIR/SP/G            HT/PER
                 (UTC) (F)     (DEG/KT/KT) (MB)    (FT/S)
W MID LAKE BUOY  2250   39 37  250/  6/  6 1016.5R   1/ 5
DEVILS ISLAND    2300   45     130/  6/  7 1016.1R
SAXON HARBOR     2240   45      30/  4/  7 1015.6R
$$

LMZ867-665-643>646-050000-
LAKE MICHIGAN

STATION/POSITION TIME  TEMP    WIND        PRES    WAVE
                       AIR SEA DIR/SP/G            HT/PER
                 (UTC) (F)     (DEG/KT/KT) (MB)    (FT/S)
CHAMBERS ISLAND  2200   45     340/ 15/ 20 1011.9R
N MID LAKE BUOY  2250   41 39  340/ 16/ 17 1011.2R   4/ 5
NORTHPORT PIER   2300   41     340/ 22/ 25 1012.2R
ALGOMA LAKESHORE 2245           10/ 18/ 27   N/A
KEWAUNEE LAKESHO 2300                      1010.8R
SHEBOYGAN LAKESH 2300   42      20/ 20/ 22 1011.4R
PORT WASHINGTON  2240   45      30/ 14/ 18 1011.5R
S MID LAKE BUOY  2250   42 40   10/ 23/ 29 1008.5R   8/ 8
KENOSHA   LAKESH 2300   44      20/ 20/ 23 1010.5R
$$

TC  - TEMPERATURE IN CELSIUS
VSB - VISIBILITY IN STATUTE MILES
WCI - WIND CHILL INDEX
HX  - HEAT INDEX




USA.gov is the U.S. government's official web portal to all federal, state and local government web resources and services.